WQ5C-13 Weather Reports


time (UTC)temp
C
wind
direction
speed
KPH
gust
KPH
rain 1hr
cm
rain 24hr
cm
rain mn
cm
humidity
%
barometer
mb
20260510121015 17 0.0 0.0 0.00 0.00 0.00 98 1011.4
20260510120016 17 0.0 0.0 0.00 0.00 0.00 98 1011.4
20260510115015 17 0.0 0.0 0.00 0.00 0.00 98 1011.5
20260510114036 17 0.0 0.0 0.00 0.00 0.00 98 1011.5
20260510113035 17 0.0 0.0 0.00 0.00 0.00 98 1011.3
20260510112035 17 0.0 0.0 0.00 0.00 0.00 98 1011.4
20260510111015 17 0.0 0.0 0.00 0.00 0.00 98 1011.4
20260510110035 17 0.0 0.0 0.00 0.00 0.00 98 1011.5
20260510105015 17 12 0.0 8.0 0.00 0.00 0.00 98 1011.4
20260510104035 16 12 0.0 4.8 0.00 0.00 0.00 98 1011.4
20260510103015 16 0.0 0.0 0.00 0.00 0.00 97 1011.4
20260510102015 17 0.0 0.0 0.00 0.00 0.00 97 1011.6
20260510101015 17 0.0 0.0 0.00 0.00 0.00 98 1011.6
20260510100015 17 0.0 0.0 0.00 0.00 0.00 97 1011.6
20260510095015 17 0.0 0.0 0.00 0.00 0.00 97 1011.6
20260510094015 17 0.0 0.0 0.00 0.00 0.00 97 1011.7
20260510093015 17 357 1.6 6.4 0.00 0.00 0.00 97 1011.5
20260510092015 17 0.0 0.0 0.00 0.00 0.00 97 1011.7
20260510091035 17 0.0 0.0 0.00 0.00 0.00 96 1011.4
20260510090015 17 192 0.0 3.2 0.00 0.00 0.00 96 1011.4
20260510085015 17 192 0.0 3.2 0.00 0.00 0.00 96 1011.3
20260510084015 17 192 0.0 0.0 0.00 0.00 0.00 96 1011.3
20260510083016 17 0.0 0.0 0.00 0.00 0.00 96 1011.4
20260510082035 17 0.0 0.0 0.00 0.00 0.00 96 1011.4
20260510081015 17 0.0 0.0 0.00 0.00 0.00 95 1011.4
20260510080155 17 0.0 0.0 0.00 0.00 0.00 95 1011.4
20260510075015 18 0.0 0.0 0.00 0.00 0.00 94 1011.4
20260510074015 18 0.0 0.0 0.00 0.00 0.00 95 1011.3
20260510073015 18 0.0 0.0 0.00 0.00 0.00 95 1011.3
20260510072015 18 0.0 0.0 0.00 0.00 0.00 94 1011.4
20260510071015 18 0.0 0.0 0.00 0.00 0.00 94 1011.5
20260510070015 18 192 1.6 3.2 0.00 0.00 0.00 94 1011.4
20260510065015 18 0.0 0.0 0.00 0.00 0.00 94 1011.4
20260510064015 18 0.0 0.0 0.00 0.00 0.00 93 1011.4
20260510063015 18 0.0 0.0 0.00 0.00 0.00 93 1011.3
20260510062015 18 0.0 0.0 0.00 0.00 0.00 93 1011.2
20260510061015 19 0.0 0.0 0.00 0.00 0.00 92 1011.3
20260510060015 19 0.0 0.0 0.00 0.00 0.00 92 1011.3
20260510055015 19 0.0 0.0 0.00 0.00 0.00 93 1011.3
20260510054015 19 0.0 0.0 0.00 0.00 0.00 92 1011.3
20260510053015 19 0.0 0.0 0.00 0.00 0.00 92 1011.4
20260510052015 19 0.0 0.0 0.00 0.00 0.00 91 1011.3
20260510051015 19 0.0 0.0 0.00 0.00 0.00 91 1011.3
20260510050015 19 0.0 0.0 0.00 0.00 0.00 90 1011.2
20260510045015 20 0.0 0.0 0.00 0.00 0.00 90 1011.1
20260510044035 20 0.0 0.0 0.00 0.00 0.00 89 1011.1
20260510043015 20 0.0 0.0 0.00 0.00 0.00 90 1011.0
20260510042015 20 0.0 0.0 0.00 0.00 0.00 89 1010.9
20260510041016 20 0.0 0.0 0.00 0.00 0.00 89 1010.7
20260510040035 20 0.0 0.0 0.00 0.00 0.00 88 1010.7
20260510035035 20 0.0 0.0 0.00 0.00 0.00 88 1010.6
20260510034015 20 0.0 0.0 0.00 0.00 0.00 87 1010.6
20260510033016 21 0.0 0.0 0.00 0.00 0.00 86 1010.5
20260510032015 21 0.0 0.0 0.00 0.00 0.00 86 1010.5
20260510031015 21 0.0 0.0 0.00 0.00 0.00 85 1010.4
20260510030015 21 0.0 0.0 0.00 0.00 0.00 84 1010.3
20260510025015 21 71 0.0 3.2 0.00 0.00 0.00 83 1010.1
20260510024015 22 0.0 0.0 0.00 0.00 0.00 82 1009.9
20260510023015 22 0.0 0.0 0.00 0.00 0.00 81 1009.8
20260510022015 22 0.0 0.0 0.00 0.00 0.00 80 1009.8
20260510021015 22 0.0 0.0 0.00 0.00 0.00 79 1009.7
20260510020015 22 0.0 0.0 0.00 0.00 0.00 78 1009.6
20260510015015 22 0.0 0.0 0.00 0.00 0.00 77 1009.6
20260510014015 23 0.0 0.0 0.00 0.00 0.00 76 1009.5
20260510013035 23 0.0 0.0 0.00 0.00 0.00 74 1009.4
20260510012015 23 0.0 0.0 0.00 0.00 0.00 73 1009.2
20260510011015 23 0.0 0.0 0.00 0.00 0.00 71 1009.2
20260510010015 24 0.0 0.0 0.00 0.00 0.00 68 1009.1
20260510005015 25 0.0 0.0 0.00 0.00 0.00 66 1008.9
20260510004015 25 0.0 0.0 0.00 0.00 0.00 63 1008.8
20260510003015 25 0.0 0.0 0.00 0.00 0.00 61 1008.7
20260510002015 25 0.0 0.0 0.00 0.00 0.00 59 1008.7
20260510001015 25 0.0 0.0 0.00 0.00 0.00 57 1008.6
20260510000015 25 0.0 0.0 0.00 0.00 0.00 56 1008.5
20260509235016 25 0.0 0.0 0.00 0.00 0.00 52 1008.4
20260509234015 25 0.0 0.0 0.00 0.00 0.00 54 1008.4
20260509233035 25 0.0 0.0 0.00 0.00 0.00 54 1008.5
20260509232015 25 0.0 0.0 0.00 0.00 0.00 54 1008.4
20260509231015 25 0.0 0.0 0.00 0.00 0.00 53 1008.4
20260509230035 25 59 1.6 16.1 0.00 0.00 0.00 52 1008.1
20260509225016 24 360 0.0 14.5 0.00 0.00 0.00 55 1008.0
20260509224035 25 74 4.8 14.5 0.00 0.00 0.00 56 1008.4
20260509223015 25 344 1.6 30.6 0.00 0.00 0.00 56 1008.4
20260509222015 26 19 0.0 1.6 0.00 0.00 0.00 49 1008.4
20260509221015 27 1 6.4 25.7 0.00 0.00 0.00 57 1008.7
20260509220015 28 6 1.6 9.7 0.00 0.00 0.00 58 1008.5
20260509215035 28 0.0 0.0 0.00 0.00 0.00 57 1008.3
20260509214015 28 56 0.0 9.7 0.00 0.00 0.00 55 1008.4
20260509213035 28 0.0 0.0 0.00 0.00 0.00 57 1008.5
20260509212036 28 0.0 0.0 0.00 0.00 0.00 56 1008.5
20260509211016 28 360 0.0 9.7 0.00 0.00 0.00 53 1008.6
20260509210035 28 360 0.0 9.7 0.00 0.00 0.00 53 1008.7
20260509205015 29 0.0 0.0 0.00 0.00 0.00 52 1008.8
20260509204015 29 360 0.0 0.0 0.00 0.00 0.00 51 1009.0
20260509203015 30 0.0 0.0 0.00 0.00 0.00 49 1009.2
20260509202015 29 78 6.4 14.5 0.00 0.00 0.00 50 1009.3
20260509201016 29 81 4.8 14.5 0.00 0.00 0.00 50 1009.3
20260509200015 29 360 0.0 16.1 0.00 0.00 0.00 51 1009.5
20260509195015 29 360 0.0 12.9 0.00 0.00 0.00 52 1009.6
20260509194016 29 75 0.0 3.2 0.00 0.00 0.00 53 1009.8
20260509193015 29 56 1.6 14.5 0.00 0.00 0.00 56 1010.0
20260509192016 28 339 0.0 0.0 0.00 0.00 0.00 54 1010.2
20260509191015 28 360 1.6 14.5 0.00 0.00 0.00 56 1010.3
20260509190015 29 360 0.0 9.7 0.00 0.00 0.00 53 1010.6
20260509185015 28 360 1.6 16.1 0.00 0.00 0.00 56 1010.6
20260509184015 28 82 1.6 11.3 0.00 0.00 0.00 56 1010.6
20260509183015 28 81 1.6 11.3 0.00 0.00 0.00 57 1010.8
20260509182015 28 84 0.0 8.0 0.00 0.00 0.00 57 1010.9
20260509181015 28 67 1.6 14.5 0.00 0.00 0.00 61 1011.0
20260509180015 27 40 1.6 9.7 0.00 0.00 0.00 65 1011.1
20260509175015 27 360 0.0 8.0 0.00 0.00 0.00 65 1011.2
20260509174016 27 46 1.6 11.3 0.00 0.00 0.00 67 1011.3
20260509173015 26 61 3.2 11.3 0.00 0.00 0.00 70 1011.5
20260509172015 26 10 1.6 6.4 0.00 0.00 0.00 71 1011.5
20260509171015 26 69 1.6 6.4 0.00 0.00 0.00 72 1011.5
20260509170016 26 0.0 0.0 0.00 0.00 0.00 74 1011.6
20260509165015 25 32 0.0 8.0 0.00 0.00 0.00 76 1011.6
20260509164036 25 356 1.6 8.0 0.00 0.00 0.00 78 1011.6
20260509163015 25 360 0.0 1.6 0.00 0.00 0.00 82 1011.7
20260509162015 24 4 1.6 9.7 0.00 0.00 0.00 88 1011.6
20260509161015 23 15 3.2 12.9 0.00 0.00 0.00 92 1011.6
20260509160015 23 15 3.2 12.9 0.00 0.00 0.00 95 1011.5
20260509155015 22 16 3.2 9.7 0.00 0.00 0.00 96 1011.5
20260509154015 22 14 4.8 12.9 0.00 0.00 0.00 98 1011.3
20260509153015 21 17 3.2 9.7 0.00 0.00 0.00 98 1011.5
20260509152015 21 19 0.0 4.8 0.00 0.00 0.00 98 1012.0
20260509151015 21 0.0 0.0 0.00 0.00 0.00 98 1011.9
20260509150015 21 0.0 0.0 0.00 0.00 0.00 98 1012.0
20260509145016 21 0.0 0.0 0.00 0.00 0.00 98 1012.1
20260509144015 21 0.0 0.0 0.00 0.00 0.00 98 1012.1
20260509143015 21 0.0 0.0 0.00 0.00 0.00 98 1012.1
20260509142015 21 0.0 0.0 0.00 0.00 0.00 99 1012.0
20260509141015 21 0.0 0.0 0.00 0.00 0.00 98 1011.7
20260509140116 21 0.0 0.0 0.00 0.00 0.00 99 1011.1
20260509135015 21 18 0.0 4.8 0.00 0.00 0.00 99 1011.1
20260509134035 21 18 1.6 6.4 0.00 0.00 0.00 98 1011.2
20260509133015 21 0.0 0.0 0.00 0.00 0.00 98 1011.2
20260509132015 21 0.0 0.0 0.00 0.00 0.00 99 1011.2
20260509131015 21 0.0 0.0 0.00 0.00 0.00 98 1011.0
20260509130015 21 0.0 0.0 0.00 0.00 0.00 98 1011.1
20260509125015 21 0.0 0.0 0.00 0.00 0.00 98 1011.3
20260509124015 21 18 1.6 6.4 0.00 0.00 0.00 98 1011.1
20260509123015 21 17 1.6 8.0 0.00 0.00 0.00 98 1011.2
20260509122036 21 22 1.6 3.2 0.00 0.00 0.00 98 1011.5